TimeMDT,TemperatureF,Dew PointF,Humidity,Sea Level PressureIn,VisibilityMPH,Wind Direction,Wind SpeedMPH,Gust SpeedMPH,PrecipitationIn,Events,Conditions,WindDirDegrees,DateUTC
12:53 AM,50.0,37.9,63,29.91,10.0,Calm,Calm,-,N/A,,Clear,0,2013-06-18 06:53:00
1:53 AM,45.0,37.0,74,29.92,10.0,Calm,Calm,-,N/A,,Clear,0,2013-06-18 07:53:00
2:53 AM,44.1,35.1,71,29.94,10.0,SW,3.5,-,N/A,,Clear,220,2013-06-18 08:53:00
3:53 AM,42.1,35.1,76,29.93,10.0,WSW,3.5,-,N/A,,Clear,250,2013-06-18 09:53:00
4:53 AM,42.1,35.1,76,29.94,10.0,West,6.9,-,N/A,,Clear,260,2013-06-18 10:53:00
5:53 AM,42.1,35.1,76,29.95,10.0,SSW,3.5,-,N/A,,Clear,210,2013-06-18 11:53:00
6:53 AM,52.0,36.0,54,29.92,10.0,ESE,3.5,-,N/A,,Clear,110,2013-06-18 12:53:00
7:53 AM,62.1,37.9,41,29.91,10.0,ENE,6.9,-,N/A,,Clear,70,2013-06-18 13:53:00
8:53 AM,70.0,37.9,31,29.91,10.0,East,10.4,-,N/A,,Partly Cloudy,80,2013-06-18 14:53:00
9:53 AM,73.9,39.0,28,29.89,10.0,East,10.4,-,N/A,,Clear,90,2013-06-18 15:53:00
10:53 AM,80.1,43.0,27,29.86,10.0,NE,9.2,-,N/A,,Clear,40,2013-06-18 16:53:00
11:53 AM,84.0,36.0,18,29.83,10.0,ENE,5.8,-,N/A,,Clear,70,2013-06-18 17:53:00
12:42 PM,82.4,33.8,17,30.03,10.0,East,8.1,-,N/A,Thunderstorm,Scattered Clouds,90,2013-06-18 18:42:00
12:53 PM,84.0,30.9,15,29.82,10.0,ENE,9.2,-,N/A,,Scattered Clouds,70,2013-06-18 18:53:00
1:53 PM,82.0,33.1,17,29.83,10.0,SE,11.5,-,N/A,,Clear,130,2013-06-18 19:53:00
2:53 PM,86.0,19.9,9,29.80,10.0,NNE,4.6,-,N/A,,Clear,20,2013-06-18 20:53:00
3:53 PM,87.1,21.9,9,29.78,10.0,West,15.0,24.2,N/A,,Clear,260,2013-06-18 21:53:00
4:53 PM,82.9,24.1,12,29.76,10.0,WNW,8.1,-,N/A,,Clear,300,2013-06-18 22:53:00
5:53 PM,81.0,28.0,14,29.75,10.0,South,9.2,-,N/A,,Clear,170,2013-06-18 23:53:00
6:53 PM,82.0,25.0,12,29.70,10.0,Calm,Calm,-,N/A,,Clear,0,2013-06-19 00:53:00
7:53 PM,79.0,36.0,21,29.67,10.0,NE,4.6,-,N/A,,Clear,50,2013-06-19 01:53:00
8:53 PM,66.9,35.1,31,29.68,10.0,SSE,5.8,-,N/A,,Clear,160,2013-06-19 02:53:00
9:53 PM,63.0,35.1,35,29.69,10.0,Calm,Calm,-,N/A,,Clear,0,2013-06-19 03:53:00
10:53 PM,60.1,36.0,41,29.70,10.0,East,5.8,-,N/A,,Clear,90,2013-06-19 04:53:00
11:53 PM,51.1,39.9,66,29.71,10.0,ESE,3.5,-,N/A,,Clear,120,2013-06-19 05:53:00